Location: Unspecified
(0.0000°N, 0.0000°E)
Time: 08:21:29
(UTC+02:00)

Cosmos 1626 Rocket - Visible Passes

Search period start: 27 August 2016 00:00
Search period end: 06 September 2016 00:00
Orbit: 604 x 631 km, 82.5° (Epoch: 26 August)

Date Brightness Start Highest point End Pass type
(mag) Time Alt. Az. Time Alt. Az. Time Alt. Az.
30 Aug 6.0 21:36:56 10° NNE 21:37:05 11° NNE 21:37:05 11° NNE visible
31 Aug 5.6 21:53:33 10° N 21:54:53 20° N 21:54:53 20° N visible
01 Sep 5.7 22:10:51 10° NNW 22:12:54 23° NW 22:12:54 23° NW visible
02 Sep 4.7 20:50:43 10° NE 20:53:55 20° E 20:53:58 20° E visible
02 Sep 6.4 22:29:11 10° WNW 22:31:12 14° W 22:31:12 14° W visible
03 Sep 3.7 21:06:36 10° NNE 21:10:44 46° E 21:12:42 27° SE visible
04 Sep 3.6 21:23:14 10° N 21:27:31 74° W 21:31:50 10° S visible
05 Sep 5.3 21:40:31 10° NNW 21:44:19 31° W 21:48:09 10° SSW visible
